THORAD AGENA D DEB, 4773

Orbit data source: Space-Track

THORAD AGENA D DEB, 4773 is space debris in SSO originally from a launch on Wed, 08 Apr 1970 UTC launched from the Air Force Western Test Range (AFWTR). Debris objects in space refer to the collection of defunct objects orbiting the Earth. Examples of debris include non-operational satellites, rocket bodies, and fragments generated from explosions, collisions, or faulty payload assembly.

Loading next visibility...
Identifier
4773, 1970-025DT
Orbit
SSO
Country
Flag of USUS
Related business
Manufacturer
Unknown
Mission
Spacecraft
Bus & Motor
Unknown
Mass
Unknown
Launch date (UTC)
1970-04-08 (56 years ago)
Launch vehicle
Unknown
Launch site
Air Force Western Test Range (AFWTR)
Object type
Payload
Rocket body
Debris
Shape & HBR
Unknown shape, 0.1 m
Radar Cross Section
Medium (>0.1 m² and <1 m²)

Expand to show TLE details & history
Last TLE update: 1 day ago

TLE from 1 day ago
0 THORAD AGENA D DEB
1 04773U 70025DT  26236.13558927  .00000083  00000-0  18097-3 0  9993
2 04773 100.0223 289.0827 0032032  86.5200 299.8587 13.57126869777319
Epoch: 2026-08-24T03:15Z
TLE epoch observation values (Epoch: 2026-08-24T03:15:14.912Z)
Latitude
25.66525°
Longitude
-96.99738°
Altitude
1,037.364 km
Speed
7.341 km/s
True Right ascension
18h 56m 56s
True Declination
25° 32' 11"
Sunlit
Object was in daylight at epoch
Visualization orbit readout
Latitude
Unknown
Longitude
Unknown
Altitude
Unknown
Speed
Unknown
Apparent Right ascension
Unknown
Apparent Declination
Unknown
Sunlit
N/A
Visualization observer readout
Local Sidereal Time
21:10:53
Azimuth
Unknown
Elevation
Unknown
Doppler factor
Unknown
Orbital elements
Apogee altitude
1,067.234 km
Perigee altitude
1,019.688 km
Semi-major axis
7,421.598 km
Eccentricity
0.0032
Inclination
100.0223°
RAAN
289.0827°
Arg. of periapsis
86.52°
True anomaly
299.53973°
Mean anomaly
299.8587°
Eccentric anomaly
299.69928°
Mean motion
3.39467 °/min
Orbital period
106.05 mins
BSTAR
0.00018097
Loading maneuver chart data...
Computing Atmospheric mass density...

Documentation

Showing up to 5 results
|